IBE81A EGKK-LEPA

Flight info

Callsign IBE81A
Flight time 1h 49m
Altitude 23000
Route SFD Y47 DRAKE/N0490F330 L151 SITET UN859 SOPIL DCT BALAN DCT EVPOK DCT NARAK DCT GAI DCT LOMRA DCT ROCAN DCT IBRAP DCT LUKEV DCT LORES
Aircraft A359/H-SDE2E3GHIJ3J4J5LM1ORWXY/LB1D1

Departure

Time 2026-05-04 06:13
Airport London Gatwick Airport (EGKK)

Arrival

Time 2026-05-04 08:02
Airport Palma de Mallorca Airport (LEPA)
Time Latitude Longitude Altitude Speed Heading
2026-05-04 05:56 51.15769 -0.16930 211 ft 0 kts 49°
2026-05-04 05:57 51.15768 -0.16932 212 ft 3 kts 49°
2026-05-04 05:58 51.15769 -0.16930 211 ft 0 kts 49°
2026-05-04 06:05 51.15705 -0.17008 220 ft 4 kts
2026-05-04 06:05 51.15690 -0.17042 220 ft 4 kts 161°
2026-05-04 06:05 51.15709 -0.17050 222 ft 0 kts 167°
2026-05-04 06:08 51.15706 -0.17049 211 ft 5 kts 167°
2026-05-04 06:08 51.15643 -0.17075 216 ft 6 kts 239°
2026-05-04 06:08 51.15620 -0.17210 218 ft 25 kts 256°
2026-05-04 06:09 51.15592 -0.17389 219 ft 5 kts 252°
2026-05-04 06:09 51.15545 -0.17444 221 ft 10 kts 185°
2026-05-04 06:11 51.15276 -0.16651 220 ft 12 kts 153°
2026-05-04 06:11 51.15187 -0.16632 218 ft 16 kts 173°
2026-05-04 06:13 51.14047 -0.24673 2105 ft 205 kts 259°
2026-05-04 06:14 51.11968 -0.39303 6742 ft 234 kts 251°
2026-05-04 06:14 51.11149 -0.41526 7611 ft 235 kts 225°
2026-05-04 06:15 51.09757 -0.42825 8556 ft 236 kts 195°
2026-05-04 06:15 51.08110 -0.42888 9516 ft 240 kts 172°
2026-05-04 06:15 51.06491 -0.42134 10379 ft 247 kts 156°
2026-05-04 06:15 51.05187 -0.40619 11056 ft 259 kts 137°
2026-05-04 06:16 51.03961 -0.38450 11684 ft 274 kts 133°
2026-05-04 06:16 51.02704 -0.36069 12317 ft 288 kts 132°
2026-05-04 06:16 51.01389 -0.33603 13092 ft 296 kts 133°
2026-05-04 06:16 51.00033 -0.31100 13964 ft 301 kts 133°
2026-05-04 06:17 50.98654 -0.28573 14765 ft 305 kts 133°
2026-05-04 06:17 50.97252 -0.26018 15583 ft 308 kts 133°
2026-05-04 06:17 50.95839 -0.23448 16398 ft 311 kts 133°
2026-05-04 06:17 50.94405 -0.20837 17234 ft 315 kts 134°
2026-05-04 06:18 50.92959 -0.18214 18054 ft 318 kts 133°
2026-05-04 06:18 50.91494 -0.15560 18764 ft 322 kts 134°
2026-05-04 06:18 50.90011 -0.12883 19403 ft 326 kts 134°
2026-05-04 06:20 50.78731 0.06363 23850 ft 351 kts 151°
2026-05-04 06:20 50.76619 0.08224 24492 ft 345 kts 161°
2026-05-04 06:21 50.67911 0.09385 25762 ft 365 kts 193°
2026-05-04 06:21 50.65376 0.08550 25986 ft 378 kts 195°
2026-05-04 06:22 50.62767 0.07571 26143 ft 392 kts 195°
2026-05-04 06:22 50.60083 0.06529 26460 ft 402 kts 195°
2026-05-04 06:25 50.23211 -0.05915 32609 ft 443 kts 182°
2026-05-04 06:25 50.20108 -0.05630 32912 ft 449 kts 175°
2026-05-04 06:26 50.17038 -0.04619 33320 ft 453 kts 167°
2026-05-04 06:26 50.14109 -0.02964 33842 ft 454 kts 161°
2026-05-04 06:26 50.11174 -0.01097 34197 ft 454 kts 163°
2026-05-04 06:26 50.08176 0.00467 34451 ft 454 kts 167°
2026-05-04 06:27 49.95922 0.05590 35602 ft 458 kts 169°
2026-05-04 06:28 49.92830 0.06794 35877 ft 459 kts 169°
2026-05-04 06:28 49.89726 0.07999 36148 ft 460 kts 169°
2026-05-04 06:28 49.86616 0.09207 36414 ft 462 kts 169°
2026-05-04 06:28 49.83488 0.10425 36665 ft 463 kts 168°
2026-05-04 06:29 49.80401 0.11628 36937 ft 464 kts 168°
2026-05-04 06:29 49.77266 0.12851 37200 ft 465 kts 168°
2026-05-04 06:29 49.74124 0.14075 37447 ft 466 kts 168°
2026-05-04 06:29 49.70976 0.15301 37724 ft 466 kts 168°
2026-05-04 06:30 49.67823 0.16528 37974 ft 467 kts 168°
2026-05-04 06:30 49.64669 0.17777 38222 ft 468 kts 168°
2026-05-04 06:30 49.61515 0.19048 38472 ft 469 kts 167°
2026-05-04 06:30 49.58352 0.20331 38696 ft 470 kts 167°
2026-05-04 06:31 49.55216 0.21602 38878 ft 471 kts 167°
2026-05-04 06:31 49.52004 0.22900 39062 ft 472 kts 168°
2026-05-04 06:31 49.48872 0.24161 39322 ft 470 kts 167°
2026-05-04 06:31 49.45710 0.25431 39531 ft 470 kts 167°
2026-05-04 06:32 49.42539 0.26700 39690 ft 471 kts 167°
2026-05-04 06:33 49.20262 0.35791 40841 ft 475 kts 166°
2026-05-04 06:34 49.17077 0.37148 40987 ft 475 kts 166°
2026-05-04 06:34 49.13894 0.38498 41135 ft 476 kts 166°
2026-05-04 06:34 49.10699 0.39846 41285 ft 476 kts 166°
2026-05-04 06:34 49.07506 0.41187 41419 ft 476 kts 166°
2026-05-04 06:35 49.04303 0.42528 41565 ft 477 kts 166°
2026-05-04 06:36 48.81846 0.51872 42388 ft 480 kts 167°
2026-05-04 06:37 48.78625 0.53206 42508 ft 480 kts 167°
2026-05-04 06:37 48.75397 0.54522 42631 ft 480 kts 167°
2026-05-04 06:37 48.72161 0.55796 42746 ft 480 kts 168°
2026-05-04 06:37 48.68924 0.57051 42856 ft 480 kts 168°
2026-05-04 06:38 48.62445 0.59553 43098 ft 480 kts 168°
2026-05-04 06:40 48.39895 0.68516 43819 ft 479 kts 167°
2026-05-04 06:40 48.36679 0.69833 43920 ft 479 kts 167°
2026-05-04 06:40 48.30242 0.72450 44041 ft 479 kts 167°
2026-05-04 06:41 48.23797 0.75054 44185 ft 480 kts 167°
2026-05-04 06:41 48.17342 0.77609 44348 ft 479 kts 167°
2026-05-04 06:42 48.10890 0.80127 44455 ft 479 kts 167°
2026-05-04 06:44 47.85152 0.90166 44939 ft 477 kts 167°
2026-05-04 06:44 47.78719 0.92663 45004 ft 477 kts 167°
2026-05-04 06:45 47.72295 0.95148 45136 ft 476 kts 167°
2026-05-04 06:45 47.65889 0.97619 45190 ft 476 kts 167°
2026-05-04 06:46 47.59470 1.00089 45249 ft 476 kts 167°
2026-05-04 06:46 47.53048 1.02554 45237 ft 477 kts 167°
2026-05-04 06:48 47.30188 1.06246 45347 ft 475 kts 182°
2026-05-04 06:48 47.26889 1.06137 45383 ft 475 kts 182°
2026-05-04 06:50 47.00433 1.05446 45505 ft 476 kts 183°
2026-05-04 06:51 46.93806 1.05178 45519 ft 477 kts 184°
2026-05-04 06:51 46.87167 1.04861 45543 ft 477 kts 184°
2026-05-04 06:52 46.80527 1.04560 45593 ft 477 kts 183°
2026-05-04 06:52 46.73883 1.04273 45642 ft 477 kts 183°
2026-05-04 06:53 46.67244 1.03993 45672 ft 477 kts 183°
2026-05-04 06:53 46.60604 1.03713 45700 ft 477 kts 183°
2026-05-04 06:54 46.54004 1.03558 45732 ft 478 kts 180°
2026-05-04 06:54 46.47379 1.04743 45742 ft 481 kts 171°
2026-05-04 06:55 46.40823 1.06835 45748 ft 483 kts 169°
2026-05-04 06:55 46.34285 1.09075 45785 ft 482 kts 169°
2026-05-04 06:57 46.08174 1.17791 45979 ft 480 kts 170°
2026-05-04 06:58 46.01696 1.19926 45954 ft 482 kts 170°
2026-05-04 06:58 45.95148 1.22078 45912 ft 482 kts 170°
2026-05-04 06:59 45.88612 1.24224 46030 ft 480 kts 170°
2026-05-04 06:59 45.82091 1.26358 46040 ft 480 kts 170°
2026-05-04 07:01 45.56026 1.34839 46078 ft 480 kts 171°
2026-05-04 07:02 45.49518 1.36945 46130 ft 479 kts 171°
2026-05-04 07:02 45.43017 1.39047 46148 ft 479 kts 171°
2026-05-04 07:03 45.36509 1.41141 46157 ft 479 kts 171°
2026-05-04 07:03 45.30000 1.43229 46179 ft 479 kts 171°
2026-05-04 07:04 45.23547 1.45296 46221 ft 478 kts 171°
2026-05-04 07:04 45.17046 1.47374 46221 ft 479 kts 171°
2026-05-04 07:05 45.10554 1.49445 46244 ft 478 kts 171°
2026-05-04 07:05 45.04066 1.51509 46224 ft 478 kts 171°
2026-05-04 07:06 44.94313 1.54603 46185 ft 479 kts 171°
2026-05-04 07:07 44.87809 1.56661 46230 ft 479 kts 171°
2026-05-04 07:09 44.62884 1.64501 46297 ft 479 kts 171°
2026-05-04 07:09 44.55329 1.66865 46364 ft 478 kts 171°
2026-05-04 07:10 44.49892 1.68561 46373 ft 478 kts 171°
2026-05-04 07:12 44.23973 1.76354 46388 ft 475 kts 175°
2026-05-04 07:12 44.17439 1.77698 46367 ft 475 kts 175°
2026-05-04 07:13 44.10905 1.79035 46359 ft 475 kts 175°
2026-05-04 07:13 44.04365 1.80440 46359 ft 475 kts 175°
2026-05-04 07:14 43.87994 1.83459 46325 ft 472 kts 181°
2026-05-04 07:15 43.81435 1.83917 46313 ft 472 kts 181°
2026-05-04 07:15 43.74858 1.84432 46260 ft 474 kts 180°
2026-05-04 07:16 43.68283 1.85037 46293 ft 474 kts 180°
2026-05-04 07:16 43.61755 1.85673 46059 ft 469 kts 180°
2026-05-04 07:17 43.58502 1.85992 45413 ft 468 kts 180°
2026-05-04 07:17 43.55246 1.86309 44690 ft 469 kts 180°
2026-05-04 07:17 43.51987 1.86623 43944 ft 469 kts 180°
2026-05-04 07:17 43.48738 1.86935 43299 ft 467 kts 180°
2026-05-04 07:18 43.45501 1.87246 42696 ft 464 kts 180°
2026-05-04 07:18 43.42292 1.87555 42102 ft 462 kts 180°
2026-05-04 07:18 43.39090 1.87863 41501 ft 460 kts 180°
2026-05-04 07:18 43.35910 1.88168 40941 ft 457 kts 180°
2026-05-04 07:19 43.32743 1.88472 40371 ft 455 kts 180°
2026-05-04 07:19 43.29597 1.88776 39835 ft 452 kts 180°
2026-05-04 07:19 43.26462 1.89076 39308 ft 450 kts 180°
2026-05-04 07:19 43.23349 1.89372 38769 ft 447 kts 180°
2026-05-04 07:20 43.20251 1.89667 38103 ft 445 kts 180°
2026-05-04 07:20 43.17159 1.89960 37322 ft 446 kts 180°
2026-05-04 07:20 43.14070 1.90253 36552 ft 446 kts 180°
2026-05-04 07:20 43.10971 1.90547 35780 ft 447 kts 180°
2026-05-04 07:22 42.89177 1.92603 29659 ft 454 kts 180°
2026-05-04 07:22 42.86011 1.92903 28636 ft 455 kts 180°
2026-05-04 07:23 42.82866 1.93203 27846 ft 451 kts 180°
2026-05-04 07:23 42.79746 1.93499 27103 ft 447 kts 180°
2026-05-04 07:23 42.76694 1.93790 26400 ft 443 kts 180°
2026-05-04 07:23 42.73629 1.94081 25712 ft 439 kts 180°
2026-05-04 07:24 42.70590 1.94368 25032 ft 435 kts 180°
2026-05-04 07:24 42.67586 1.94837 24350 ft 435 kts 174°
2026-05-04 07:24 42.64625 1.95682 23730 ft 433 kts 171°
2026-05-04 07:24 42.61708 1.96644 23181 ft 430 kts 170°
2026-05-04 07:25 42.58803 1.97667 22979 ft 433 kts 169°
2026-05-04 07:26 42.38316 2.05091 22958 ft 435 kts 169°
2026-05-04 07:27 42.35383 2.06140 22970 ft 436 kts 169°
2026-05-04 07:27 42.32456 2.07187 22979 ft 436 kts 169°
2026-05-04 07:27 42.29525 2.08229 22980 ft 436 kts 169°
2026-05-04 07:27 42.26593 2.09268 22987 ft 436 kts 169°
2026-05-04 07:28 42.23655 2.10306 22982 ft 436 kts 169°
2026-05-04 07:28 42.20723 2.11343 22983 ft 437 kts 169°
2026-05-04 07:28 42.17815 2.12372 22982 ft 436 kts 169°
2026-05-04 07:28 42.14882 2.13409 22982 ft 436 kts 169°
2026-05-04 07:29 42.11945 2.14451 22985 ft 436 kts 169°
2026-05-04 07:29 42.09013 2.15489 22971 ft 436 kts 169°
2026-05-04 07:29 42.06073 2.16524 22982 ft 436 kts 169°
2026-05-04 07:29 42.03131 2.17559 22976 ft 436 kts 169°
2026-05-04 07:30 42.00192 2.18592 22980 ft 436 kts 169°
2026-05-04 07:30 41.97257 2.19624 22985 ft 436 kts 169°
2026-05-04 07:30 41.94318 2.20659 22992 ft 436 kts 170°
2026-05-04 07:30 41.91386 2.21688 22991 ft 436 kts 170°
2026-05-04 07:31 41.88446 2.22718 22972 ft 436 kts 170°
2026-05-04 07:31 41.85502 2.23748 22979 ft 436 kts 170°
2026-05-04 07:33 41.64921 2.30939 22986 ft 437 kts 170°
2026-05-04 07:33 41.61978 2.31963 22987 ft 437 kts 170°
2026-05-04 07:33 41.59030 2.32989 22987 ft 437 kts 170°
2026-05-04 07:33 41.56118 2.34001 22986 ft 437 kts 170°
2026-05-04 07:34 41.53173 2.35023 22976 ft 438 kts 170°
2026-05-04 07:34 41.50221 2.36047 22988 ft 438 kts 171°
2026-05-04 07:34 41.47276 2.37068 22981 ft 438 kts 171°
2026-05-04 07:34 41.44323 2.38090 22982 ft 438 kts 171°
2026-05-04 07:35 41.41368 2.39112 22982 ft 438 kts 171°
2026-05-04 07:35 41.38409 2.40135 22983 ft 438 kts 171°
2026-05-04 07:35 41.35457 2.41154 22983 ft 438 kts 171°
2026-05-04 07:35 41.32508 2.42172 22983 ft 438 kts 171°
2026-05-04 07:36 41.29548 2.43192 22981 ft 439 kts 171°
2026-05-04 07:36 41.26587 2.44211 22982 ft 440 kts 171°
2026-05-04 07:38 41.05870 2.51318 22979 ft 441 kts 171°
2026-05-04 07:38 41.02896 2.52334 22976 ft 441 kts 171°
2026-05-04 07:38 40.99924 2.53349 22976 ft 441 kts 171°
2026-05-04 07:38 40.96950 2.54363 22976 ft 441 kts 171°
2026-05-04 07:39 40.93973 2.55378 22978 ft 441 kts 171°
2026-05-04 07:39 40.91000 2.56390 22976 ft 441 kts 171°
2026-05-04 07:39 40.88030 2.57400 22970 ft 441 kts 171°
2026-05-04 07:39 40.85053 2.58412 22978 ft 442 kts 171°
2026-05-04 07:40 40.82071 2.59424 22979 ft 443 kts 171°
2026-05-04 07:40 40.79081 2.60439 22978 ft 443 kts 171°
2026-05-04 07:40 40.76097 2.61451 22980 ft 443 kts 171°
2026-05-04 07:40 40.73146 2.62450 22979 ft 443 kts 171°
2026-05-04 07:41 40.70116 2.63475 22980 ft 443 kts 171°
2026-05-04 07:41 40.67194 2.64465 22732 ft 434 kts 171°
2026-05-04 07:41 40.64281 2.65452 21789 ft 433 kts 171°
2026-05-04 07:41 40.61347 2.66438 20740 ft 436 kts 171°
2026-05-04 07:42 40.58453 2.67417 19691 ft 420 kts 170°
2026-05-04 07:42 40.55693 2.68353 19042 ft 401 kts 170°
2026-05-04 07:42 40.53008 2.69258 18398 ft 397 kts 171°
2026-05-04 07:42 40.50351 2.70258 17678 ft 398 kts 165°
2026-05-04 07:43 40.47838 2.71794 16981 ft 399 kts 156°
2026-05-04 07:43 40.45392 2.73551 16307 ft 401 kts 155°
2026-05-04 07:43 40.42967 2.75326 15621 ft 397 kts 155°
2026-05-04 07:43 40.40560 2.77084 14945 ft 394 kts 154°
2026-05-04 07:44 40.38170 2.78822 14272 ft 391 kts 154°
2026-05-04 07:44 40.35799 2.80542 13736 ft 385 kts 154°
2026-05-04 07:44 40.33511 2.82203 13600 ft 367 kts 154°
2026-05-04 07:44 40.31356 2.83766 13486 ft 350 kts 154°
2026-05-04 07:45 40.29250 2.85289 13370 ft 333 kts 154°
2026-05-04 07:45 40.27285 2.86708 13248 ft 319 kts 155°
2026-05-04 07:45 40.25382 2.88080 13120 ft 305 kts 155°
2026-05-04 07:45 40.23561 2.89392 12979 ft 293 kts 155°
2026-05-04 07:46 40.21809 2.90653 12838 ft 284 kts 155°
2026-05-04 07:46 40.20084 2.91897 12486 ft 282 kts 155°
2026-05-04 07:46 40.18366 2.93127 12143 ft 281 kts 155°
2026-05-04 07:46 40.16665 2.94346 11835 ft 278 kts 155°
2026-05-04 07:47 40.14965 2.95564 11505 ft 277 kts 155°
2026-05-04 07:47 40.13274 2.96776 11182 ft 276 kts 155°
2026-05-04 07:47 40.11615 2.97966 10866 ft 274 kts 154°
2026-05-04 07:49 39.99812 3.06415 8819 ft 262 kts 154°
2026-05-04 07:49 39.98264 3.07526 8509 ft 246 kts 154°
2026-05-04 07:49 39.96805 3.08570 8201 ft 234 kts 155°
2026-05-04 07:50 39.95397 3.09574 7811 ft 226 kts 155°
2026-05-04 07:50 39.94037 3.10432 7561 ft 213 kts 163°
2026-05-04 07:50 39.92642 3.10805 7327 ft 198 kts 181°
2026-05-04 07:50 39.91301 3.10598 7091 ft 192 kts 198°
2026-05-04 07:51 39.90055 3.09994 6983 ft 192 kts 204°
2026-05-04 07:51 39.88837 3.09301 6926 ft 189 kts 205°
2026-05-04 07:51 39.87671 3.08633 6835 ft 178 kts 205°
2026-05-04 07:51 39.86567 3.08004 6688 ft 169 kts 205°
2026-05-04 07:52 39.85505 3.07403 6452 ft 165 kts 205°
2026-05-04 07:52 39.84453 3.06808 6176 ft 164 kts 204°
2026-05-04 07:52 39.83407 3.06219 5812 ft 165 kts 204°
2026-05-04 07:52 39.82285 3.05587 5723 ft 184 kts 204°
2026-05-04 07:53 39.81135 3.04941 5629 ft 174 kts 204°
2026-05-04 07:54 39.73067 3.00427 4073 ft 184 kts 204°
2026-05-04 07:55 39.71896 2.99774 3997 ft 182 kts 204°
2026-05-04 07:55 39.71122 2.99341 3964 ft 183 kts 204°
2026-05-04 07:55 39.69955 2.98688 3917 ft 182 kts 204°
2026-05-04 07:55 39.68791 2.98038 3826 ft 182 kts 204°
2026-05-04 07:56 39.67635 2.97392 3740 ft 179 kts 204°
2026-05-04 07:56 39.66514 2.96767 3617 ft 173 kts 204°
2026-05-04 07:56 39.65401 2.96110 3549 ft 173 kts 210°
2026-05-04 07:56 39.64502 2.95171 3444 ft 161 kts 231°
2026-05-04 07:57 39.63919 2.93952 3212 ft 158 kts 239°
2026-05-04 07:57 39.63362 2.92748 2948 ft 152 kts 236°
2026-05-04 07:57 39.62825 2.91627 2752 ft 141 kts 236°
2026-05-04 07:57 39.62337 2.90590 2572 ft 131 kts 236°
2026-05-04 07:58 39.61867 2.89592 2410 ft 129 kts 236°
2026-05-04 07:58 39.61400 2.88603 2226 ft 129 kts 237°
2026-05-04 07:58 39.60931 2.87606 2057 ft 128 kts 237°
2026-05-04 07:58 39.60467 2.86620 1875 ft 127 kts 237°
2026-05-04 07:59 39.60012 2.85653 1712 ft 123 kts 236°
2026-05-04 07:59 39.59565 2.84707 1558 ft 122 kts 238°
2026-05-04 07:59 39.59124 2.83767 1401 ft 124 kts 236°
2026-05-04 07:59 39.58672 2.82810 1194 ft 128 kts 237°
2026-05-04 08:00 39.58221 2.81849 1039 ft 133 kts 235°
2026-05-04 08:00 39.57751 2.80854 823 ft 131 kts 237°
2026-05-04 08:00 39.57278 2.79849 717 ft 131 kts 238°
2026-05-04 08:02 39.54587 2.74143 44 ft 33 kts 243°
2026-05-04 08:02 39.54554 2.73945 45 ft 25 kts 267°
2026-05-04 08:02 39.54572 2.73755 45 ft 12 kts 314°
2026-05-04 08:03 39.54594 2.73751 45 ft 9 kts 14°
2026-05-04 08:03 39.54682 2.73899 42 ft 23 kts 59°
2026-05-04 08:03 39.54704 2.73947 45 ft 20 kts 59°
2026-05-04 08:03 39.54803 2.74118 44 ft 12 kts 21°
2026-05-04 08:04 39.54872 2.74087 45 ft 17 kts 330°
2026-05-04 08:04 39.55002 2.73989 44 ft 23 kts 329°
2026-05-04 08:04 39.55146 2.73873 44 ft 23 kts 329°
2026-05-04 08:04 39.55172 2.73816 44 ft 9 kts 262°
2026-05-04 08:05 39.55165 2.73787 44 ft 3 kts 258°
2026-05-04 08:05 39.55160 2.73654 42 ft 15 kts 238°
2026-05-04 08:05 39.55102 2.73536 44 ft 9 kts 228°
2026-05-04 08:05 39.55077 2.73527 44 ft 3 kts 184°
2026-05-04 08:06 39.55045 2.73536 44 ft 1 kts 166°
2026-05-04 08:06 39.55043 2.73536 44 ft 0 kts 165°